| time (UTC) | temp F | wind direction | speed knots | gust knots | rain 1hr in | rain 24hr in | rain mn in | humidity % | barometer mb |
| 20260504090104 | 37 | 275 | 0.0 | 0.0 | 0.00 | 0.00 | 0.00 | 87 | 993.8 |
| 20260504081942 | 38 | 275 | 0.9 | 1.7 | 0.00 | 0.00 | 0.00 | 87 | 994.0 |
| 20260504081505 | 37 | 275 | 1.7 | 3.5 | 0.00 | 0.00 | 0.00 | 86 | 994.0 |
| 20260504080931 | 38 | 275 | 0.9 | 1.7 | 0.00 | 0.00 | 0.00 | 86 | 994.0 |
| 20260504080104 | 38 | 275 | 1.7 | 2.6 | 0.00 | 0.00 | 0.00 | 86 | 994.0 |
| 20260504060109 | 40 | 284 | 0.0 | 0.9 | 0.00 | 0.00 | 0.00 | 81 | 994.0 |
| 20260504050241 | 41 | 284 | 0.0 | 0.0 | 0.00 | 0.00 | 0.00 | 81 | 993.9 |
| 20260504050002 | 40 | 284 | 0.0 | 0.0 | 0.00 | 0.00 | 0.00 | 81 | 994.0 |
| 20260504045246 | 41 | 284 | 0.0 | 0.0 | 0.00 | 0.00 | 0.00 | 81 | 994.0 |
| 20260504044602 | 40 | 284 | 0.0 | 1.7 | 0.00 | 0.00 | 0.00 | 81 | 994.1 |
| 20260504044303 | 41 | 284 | 0.0 | 1.7 | 0.00 | 0.00 | 0.00 | 80 | 994.0 |
| 20260504043005 | 41 | 284 | 0.0 | 0.0 | 0.00 | 0.00 | 0.00 | 80 | 994.0 |
| 20260504042148 | 41 | 284 | 0.0 | 0.0 | 0.00 | 0.00 | 0.00 | 80 | 994.0 |
| 20260504041602 | 41 | 284 | 0.0 | 1.7 | 0.00 | 0.00 | 0.00 | 79 | 994.0 |
| 20260504040108 | 42 | 284 | 0.0 | 0.0 | 0.00 | 0.00 | 0.00 | 77 | 993.8 |
| 20260504040008 | 42 | 284 | 0.0 | 0.0 | 0.00 | 0.00 | 0.00 | 77 | 993.9 |
| 20260504034503 | 42 | 284 | 0.0 | 1.7 | 0.00 | 0.00 | 0.00 | 77 | 993.7 |
| 20260504034020 | 43 | 284 | 0.0 | 0.0 | 0.00 | 0.00 | 0.00 | 76 | 993.8 |
| 20260504033106 | 43 | 284 | 0.0 | 0.9 | 0.00 | 0.00 | 0.00 | 75 | 993.7 |
| 20260504033041 | 43 | 284 | 0.0 | 0.0 | 0.00 | 0.00 | 0.00 | 75 | 993.7 |
| 20260504031606 | 43 | 284 | 0.0 | 0.9 | 0.00 | 0.00 | 0.00 | 73 | 993.7 |
| 20260504030002 | 44 | 284 | 0.0 | 0.9 | 0.00 | 0.00 | 0.00 | 72 | 993.5 |
| 20260504025713 | 44 | 284 | 0.0 | 0.0 | 0.00 | 0.00 | 0.00 | 72 | 993.4 |
| 20260504024653 | 45 | 284 | 0.0 | 0.9 | 0.00 | 0.00 | 0.00 | 71 | 993.4 |
| 20260504024603 | 45 | 284 | 0.0 | 1.7 | 0.00 | 0.00 | 0.00 | 71 | 993.4 |
| 20260504023633 | 46 | 285 | 0.0 | 0.9 | 0.00 | 0.00 | 0.00 | 68 | 993.4 |
| 20260504023003 | 45 | 285 | 0.0 | 0.9 | 0.00 | 0.00 | 0.00 | 67 | 993.6 |
| 20260504022603 | 46 | 285 | 0.0 | 0.0 | 0.00 | 0.00 | 0.00 | 67 | 993.5 |
| 20260504021612 | 47 | 285 | 0.0 | 0.9 | 0.00 | 0.00 | 0.00 | 67 | 993.5 |
| 20260504021603 | 46 | 285 | 0.9 | 1.7 | 0.00 | 0.00 | 0.00 | 67 | 993.5 |
| 20260504020602 | 48 | 285 | 0.0 | 0.0 | 0.00 | 0.00 | 0.00 | 64 | 993.5 |
| 20260504020002 | 48 | 285 | 0.0 | 1.7 | 0.00 | 0.00 | 0.00 | 63 | 993.5 |
| 20260504015539 | 49 | 285 | 0.0 | 0.0 | 0.00 | 0.00 | 0.00 | 62 | 993.5 |
| 20260504014549 | 50 | 285 | 0.0 | 0.9 | 0.00 | 0.00 | 0.00 | 59 | 993.4 |
| 20260504014503 | 49 | 285 | 0.0 | 1.7 | 0.00 | 0.00 | 0.00 | 59 | 993.5 |
| 20260504013556 | 51 | 285 | 0.0 | 0.9 | 0.00 | 0.00 | 0.00 | 58 | 993.3 |
| 20260504013107 | 51 | 285 | 0.9 | 1.7 | 0.00 | 0.00 | 0.00 | 56 | 993.3 |
| 20260504012609 | 52 | 124 | 0.0 | 0.9 | 0.00 | 0.00 | 0.00 | 55 | 993.2 |
| 20260504011538 | 53 | 124 | 0.0 | 0.0 | 0.00 | 0.00 | 0.00 | 52 | 993.1 |
| 20260504011503 | 53 | 124 | 0.0 | 0.0 | 0.00 | 0.00 | 0.00 | 52 | 993.1 |
| 20260504010559 | 54 | 124 | 0.0 | 0.0 | 0.00 | 0.00 | 0.00 | 49 | 993.1 |
| 20260504004614 | 55 | 123 | 0.0 | 2.6 | 0.00 | 0.00 | 0.00 | 44 | 993.1 |
| 20260504004351 | 56 | 124 | 0.0 | 2.6 | 0.00 | 0.00 | 0.00 | 43 | 993.1 |
| 20260504003350 | 56 | 103 | 0.9 | 2.6 | 0.00 | 0.00 | 0.00 | 43 | 992.9 |
| 20260504003002 | 56 | 130 | 0.9 | 3.5 | 0.00 | 0.00 | 0.00 | 43 | 993.0 |
| 20260504002342 | 57 | 94 | 0.0 | 2.6 | 0.00 | 0.00 | 0.00 | 42 | 992.8 |
| 20260504001603 | 57 | 103 | 0.9 | 3.5 | 0.00 | 0.00 | 0.00 | 41 | 992.8 |
| 20260504001320 | 58 | 97 | 0.0 | 2.6 | 0.00 | 0.00 | 0.00 | 41 | 992.7 |
| 20260504000250 | 58 | 130 | 0.9 | 7.8 | 0.00 | 0.00 | 0.00 | 40 | 992.6 |
| 20260504000002 | 58 | 78 | 1.7 | 7.0 | 0.00 | 0.00 | 0.00 | 39 | 992.6 |
| 20260503235258 | 59 | 120 | 1.7 | 7.8 | 0.00 | 0.00 | 0.00 | 38 | 992.4 |
| 20260503234603 | 59 | 154 | 0.9 | 6.1 | 0.00 | 0.00 | 0.00 | 38 | 992.5 |
| 20260503234225 | 60 | 152 | 1.7 | 7.0 | 0.00 | 0.00 | 0.00 | 38 | 992.4 |
| 20260503233251 | 60 | 136 | 2.6 | 7.8 | 0.00 | 0.00 | 0.00 | 38 | 992.3 |
| 20260503233105 | 59 | 130 | 4.3 | 8.7 | 0.00 | 0.00 | 0.00 | 38 | 992.3 |
| 20260503232301 | 60 | 136 | 3.5 | 7.8 | 0.00 | 0.00 | 0.00 | 38 | 992.3 |
| 20260503231503 | 60 | 86 | 3.5 | 7.8 | 0.00 | 0.00 | 0.00 | 38 | 992.4 |
| 20260503231235 | 61 | 137 | 2.6 | 12.2 | 0.00 | 0.00 | 0.00 | 37 | 992.3 |
| 20260503230248 | 61 | 137 | 5.2 | 12.2 | 0.00 | 0.00 | 0.00 | 37 | 992.3 |
| 20260503230117 | 60 | 142 | 3.5 | 13.0 | 0.00 | 0.00 | 0.00 | 37 | 992.3 |
| 20260503225254 | 61 | 131 | 4.3 | 11.3 | 0.00 | 0.00 | 0.00 | 37 | 992.1 |
| 20260503224605 | 61 | 103 | 5.2 | 12.2 | 0.00 | 0.00 | 0.00 | 37 | 992.3 |
| 20260503224244 | 61 | 169 | 4.3 | 12.2 | 0.00 | 0.00 | 0.00 | 36 | 992.2 |
| 20260503223212 | 61 | 139 | 5.2 | 12.2 | 0.00 | 0.00 | 0.00 | 37 | 992.2 |
| 20260503223003 | 61 | 102 | 6.1 | 15.6 | 0.00 | 0.00 | 0.00 | 36 | 992.2 |
| 20260503222209 | 61 | 107 | 4.3 | 12.2 | 0.00 | 0.00 | 0.00 | 38 | 992.2 |
| 20260503221503 | 61 | 119 | 6.1 | 13.9 | 0.00 | 0.00 | 0.00 | 36 | 992.3 |
| 20260503221233 | 62 | 144 | 7.0 | 13.0 | 0.00 | 0.00 | 0.00 | 36 | 992.2 |
| 20260503214012 | 62 | 177 | 4.3 | 12.2 | 0.00 | 0.00 | 0.00 | 36 | 992.1 |
| 20260503213104 | 61 | 161 | 4.3 | 13.0 | 0.00 | 0.00 | 0.00 | 36 | 992.2 |
| 20260503213025 | 62 | 170 | 5.2 | 12.2 | 0.00 | 0.00 | 0.00 | 36 | 992.1 |
| 20260503212016 | 62 | 134 | 4.3 | 11.3 | 0.00 | 0.00 | 0.00 | 36 | 992.1 |
| 20260503211554 | 62 | 163 | 6.1 | 13.0 | 0.00 | 0.00 | 0.00 | 36 | 992.1 |
| 20260503204817 | 61 | 128 | 7.0 | 14.8 | 0.00 | 0.00 | 0.00 | 38 | 992.1 |
| 20260503204602 | 61 | 95 | 7.8 | 15.6 | 0.00 | 0.00 | 0.00 | 37 | 992.2 |
| 20260503203752 | 61 | 148 | 3.5 | 15.6 | 0.00 | 0.00 | 0.00 | 41 | 992.1 |
| 20260503203103 | 60 | 152 | 2.6 | 17.4 | 0.00 | 0.00 | 0.00 | 36 | 992.3 |
| 20260503202728 | 61 | 112 | 6.1 | 15.6 | 0.00 | 0.00 | 0.00 | 36 | 992.3 |
| 20260503201747 | 60 | 148 | 4.3 | 13.0 | 0.00 | 0.00 | 0.00 | 38 | 992.2 |
| 20260503201502 | 60 | 102 | 7.0 | 12.2 | 0.00 | 0.00 | 0.00 | 38 | 992.4 |
| 20260503200718 | 61 | 188 | 4.3 | 13.9 | 0.00 | 0.00 | 0.00 | 37 | 992.4 |
| 20260503200002 | 60 | 133 | 6.1 | 14.8 | 0.00 | 0.00 | 0.00 | 36 | 992.6 |
| 20260503195730 | 61 | 108 | 6.1 | 14.8 | 0.00 | 0.00 | 0.00 | 37 | 992.5 |
| 20260503194740 | 60 | 135 | 7.8 | 14.8 | 0.00 | 0.00 | 0.00 | 38 | 992.6 |
| 20260503194503 | 60 | 123 | 7.8 | 15.6 | 0.00 | 0.00 | 0.00 | 36 | 992.8 |
| 20260503193705 | 59 | 152 | 5.2 | 11.3 | 0.00 | 0.00 | 0.00 | 37 | 992.8 |
| 20260503193106 | 58 | 160 | 6.1 | 13.0 | 0.00 | 0.00 | 0.00 | 37 | 992.9 |
| 20260503191507 | 59 | 145 | 7.0 | 15.6 | 0.00 | 0.00 | 0.00 | 38 | 993.0 |
| 20260503190442 | 61 | 126 | 3.5 | 14.8 | 0.00 | 0.00 | 0.00 | 39 | 993.0 |
| 20260503184633 | 58 | 123 | 7.0 | 13.9 | 0.00 | 0.00 | 0.00 | 37 | 993.5 |
| 20260503184342 | 59 | 153 | 5.2 | 12.2 | 0.00 | 0.00 | 0.00 | 38 | 993.4 |
| 20260503183307 | 58 | 238 | 5.2 | 12.2 | 0.00 | 0.00 | 0.00 | 41 | 993.4 |
| 20260503183006 | 58 | 142 | 7.0 | 13.0 | 0.00 | 0.00 | 0.00 | 38 | 993.6 |
| 20260503182248 | 57 | 144 | 6.1 | 15.6 | 0.00 | 0.00 | 0.00 | 42 | 993.6 |
| 20260503181616 | 57 | 136 | 7.0 | 13.9 | 0.00 | 0.00 | 0.00 | 40 | 993.7 |
| 20260503181308 | 57 | 147 | 7.0 | 15.6 | 0.00 | 0.00 | 0.00 | 39 | 993.7 |
| 20260503180236 | 57 | 126 | 5.2 | 13.0 | 0.00 | 0.00 | 0.00 | 46 | 993.7 |
| 20260503180003 | 56 | 190 | 6.1 | 13.9 | 0.00 | 0.00 | 0.00 | 42 | 993.7 |
| 20260503175246 | 56 | 167 | 5.2 | 13.0 | 0.00 | 0.00 | 0.00 | 43 | 993.8 |
| 20260503174701 | 55 | 101 | 7.8 | 13.9 | 0.00 | 0.00 | 0.00 | 41 | 993.8 |
| 20260503174215 | 55 | 134 | 6.1 | 11.3 | 0.00 | 0.00 | 0.00 | 41 | 993.8 |
| 20260503173235 | 56 | 164 | 5.2 | 12.2 | 0.00 | 0.00 | 0.00 | 41 | 993.9 |
| 20260503173003 | 56 | 178 | 4.3 | 16.5 | 0.00 | 0.00 | 0.00 | 40 | 993.9 |
| 20260503171502 | 55 | 151 | 7.8 | 20.0 | 0.00 | 0.00 | 0.00 | 41 | 994.1 |
| 20260503171048 | 56 | 151 | 6.1 | 19.1 | 0.00 | 0.00 | 0.00 | 43 | 994.1 |
| 20260503150438 | 52 | 152 | 3.5 | 17.4 | 0.00 | 0.00 | 0.00 | 42 | 995.0 |
| 20260503140103 | 48 | 121 | 3.5 | 10.4 | 0.00 | 0.00 | 0.00 | 54 | 995.1 |
| 20260503131153 | 46 | 144 | 7.0 | 13.0 | 0.00 | 0.00 | 0.00 | 60 | 995.2 |
| 20260503130128 | 46 | 158 | 3.5 | 13.9 | 0.00 | 0.00 | 0.00 | 61 | 995.2 |
| 20260503120103 | 43 | 150 | 2.6 | 10.4 | 0.00 | 0.00 | 0.00 | 66 | 995.1 |